User: anonymous   Login
Location: Writing-on-Stone Provincial Park
(49.0825°N, 111.6163°W)
Time: 14:04:52
(UTC-07:00)
Language:

BREEZE-M DEB (TANK) - Orbit

View from above orbital plane
View from above orbital plane
View from above satellite
View from above satellite

Ground track
Ground track

The orbit data is extracted from the following two-line orbital elements,

1 29649U 06056B   16038.31798530 +.00001296 +00000-0 +22681-3 0  9991
2 29649 049.4695 236.2589 5388367 212.0570 099.3058 04.97782017163044
Epoch (UTC): 07 February 2016 07:37:53
Eccentricity: 0.5388367
inclination: 49.4695°
perigee height: 304 km
apogee height: 15918 km
right ascension of ascending node: 236.2589°
argument of perigee: 212.0570°
revolutions per day: 4.97782017
mean anomaly at epoch: 99.3058°
orbit number at epoch: 16304

The dashed part of the orbit path shows where the satellite is in the earth's shadow,  

DLR